George, South Africa

9:09 AM SAST on February 18, 2018 (GMT +0200)
George

Weather History for FAGG - January, 2012

Change the Weather History Date:

Saturday, January 14, 2012

  Actual Average Record
Temperature  
Mean Temperature 68 °F -  
Max Temperature 72 °F 74 °F 77 °F (2015)
Min Temperature 62 °F 58 °F 59 °F (2017)
Cooling Degree Days 2    
Growing Degree Days 18 (Base 50)    
Moisture  
Dew Point 61 °F    
Average Humidity 81    
Maximum Humidity 94    
Minimum Humidity 62    
Precipitation  
Precipitation 0.00 in - - ()
Sea Level Pressure  
Sea Level Pressure 30.08 in    
Wind  
Wind Speed 5 mph ()    
Max Wind Speed 12 mph    
Max Gust Speed -    
Visibility 7.5 miles    
Events      
Averages and records for this station are not official NWS values.
T = Trace of Precipitation, MM = Missing Value Source: Averaged Metar Reports

Daily Weather History Graph

Daily Weather History Graph

Search for Another Location

Airport or City:

Trip Planner

Search our weather history database for the weather conditions in past years. The results will help you decide how hot, cold, wet, or windy it might be!

Date:

Astronomy

Jan. 14, 2012 Rise Set
Actual Time 5:33 AM SAST 7:44 PM SAST
Civil Twilight 5:04 AM SAST 8:13 PM SAST
Nautical Twilight 4:30 AM SAST 8:48 PM SAST
Astronomical Twilight 3:52 AM SAST 9:25 PM SAST
Moon 10:48 PM SAST (1/14) 10:48 AM SAST (1/14)
Length of Visible Light 15h 08m
Length of Day
14h 11m
Waning Gibbous, 72% of the Moon is Illuminated
Jan 14
Waning Gibbous
Jan 16
Last Quarter
Jan 23
New
Jan 31
First Quarter
Feb 7
Full

Hourly Weather History & Observations

Time (SAST) Temp. Dew Point Humidity Pressure Visibility Wind Dir Wind Speed Gust Speed Precip Events Conditions
12:00 AM 64.4 °F 60.8 °F 88% 30.04 in 6.2 mi NW 4.6 mph - N/A   Mostly Cloudy
1:00 AM 64.4 °F 60.8 °F 88% 30.04 in 6.2 mi Variable 2.3 mph - N/A   Mostly Cloudy
2:00 AM 65 °F 62 °F 85% 30.05 in 12 mi West 2.3 mph - -  
2:00 AM 64.4 °F 60.8 °F 88% 30.04 in 6.2 mi West 2.3 mph - N/A   Overcast
3:00 AM 64.4 °F 60.8 °F 88% 30.04 in 6.2 mi NNW 3.5 mph - N/A   Overcast
4:00 AM 64.4 °F 60.8 °F 88% 30.04 in 6.2 mi Variable 2.3 mph - N/A   Mostly Cloudy
5:00 AM 63 °F 61 °F 92% 30.04 in 12 mi NNW 3.5 mph - -   Overcast
5:00 AM 62.6 °F 60.8 °F 94% 30.04 in 6.2 mi NNW 3.5 mph - N/A   Mostly Cloudy
6:00 AM 64.4 °F 60.8 °F 88% 30.06 in 6.2 mi NNW 4.6 mph - N/A   Mostly Cloudy
7:00 AM 64.4 °F 60.8 °F 88% 30.06 in 6.2 mi WNW 4.6 mph - N/A   Overcast
8:00 AM 67 °F 62 °F 79% 30.08 in 12 mi West 3.5 mph - -   Overcast
8:00 AM 66.2 °F 62.6 °F 88% 30.06 in 6.2 mi West 3.5 mph - N/A   Overcast
8:20 AM 66.2 °F 62.6 °F 88% 30.06 in 6.2 mi SSE 6.9 mph - N/A   Mostly Cloudy
8:46 AM 66.2 °F 62.6 °F 88% 30.09 in 6.2 mi SSE 5.8 mph - N/A   Mostly Cloudy
9:00 AM 66.2 °F 62.6 °F 88% 30.09 in 6.2 mi SSE 5.8 mph - N/A   Mostly Cloudy
10:00 AM 68.0 °F 62.6 °F 83% 30.09 in 6.2 mi SE 5.8 mph - N/A   Mostly Cloudy
11:00 AM 68 °F 61 °F 73% 30.09 in 12 mi SSE 6.9 mph - -   Overcast
11:00 AM 68.0 °F 60.8 °F 78% 30.09 in 6.2 mi SSE 8.1 mph - N/A   Mostly Cloudy
12:00 PM 68.0 °F 60.8 °F 78% 30.09 in 6.2 mi SSE 8.1 mph - N/A   Mostly Cloudy
1:00 PM 69.8 °F 60.8 °F 73% 30.12 in 6.2 mi SE 8.1 mph - N/A   Mostly Cloudy
2:00 PM 71 °F 61 °F 62% 30.10 in 12 mi ESE 9.2 mph - -   Mostly Cloudy
2:00 PM 71.6 °F 60.8 °F 69% 30.12 in 6.2 mi ESE 9.2 mph - N/A   Mostly Cloudy
3:00 PM 71.6 °F 60.8 °F 69% 30.09 in 6.2 mi SE 10.4 mph - N/A   Mostly Cloudy
4:00 PM 69.8 °F 62.6 °F 78% 30.09 in 6.2 mi SE 11.5 mph - N/A   Mostly Cloudy
5:00 PM 69 °F 61 °F 69% 30.09 in 12 mi East 9.2 mph - -   Mostly Cloudy
5:00 PM 69.8 °F 60.8 °F 73% 30.09 in 6.2 mi ESE 9.2 mph - N/A   Mostly Cloudy
6:00 PM 69.8 °F 60.8 °F 73% 30.09 in 6.2 mi ESE 10.4 mph - N/A   Mostly Cloudy
7:00 PM 69.8 °F 60.8 °F 73% 30.12 in 6.2 mi ESE 9.2 mph - N/A   Mostly Cloudy
8:00 PM 68 °F 61 °F 71% 30.12 in 12 mi SE 5.8 mph - -   Mostly Cloudy
8:00 PM 68.0 °F 60.8 °F 78% 30.12 in 6.2 mi SE 5.8 mph - N/A   Mostly Cloudy
9:00 PM 66.2 °F 60.8 °F 83% 30.12 in 6.2 mi East 4.6 mph - N/A   Mostly Cloudy
10:00 PM 64.4 °F 60.8 °F 88% 30.15 in 6.2 mi NE 1.2 mph - N/A   Partly Cloudy
11:00 PM 62.6 °F 60.8 °F 94% 30.15 in - Variable 1.2 mph - N/A   Clear